• In Netherlands
  • List of Countries
  • For 7 days
  • Water Temperature
  • Satellite Maps
  • Weather Map
  • Weather Widgets
  • user-avatar
    Login

    Hourly Weather Córdoba

    Today, 26 March, Sunday

    Time Temperature Precipitation Wind Pressure Humidity
    00:00 +21°C° 0.1 mm 2 mps 722 mmHg 93%
    01:00 +21°C° 0.1 mm 1 mps 721 mmHg 93%
    02:00 +22°C° 0 mm 1 mps 721 mmHg 92%
    03:00 +22°C° 0 mm 1 mps 721 mmHg 92%
    04:00 +21°C° 0 mm 1 mps 721 mmHg 92%
    05:00 +21°C° 0 mm 1 mps 721 mmHg 93%
    06:00 +22°C° 0 mm 1 mps 721 mmHg 90%
    07:00 +23°C° 0 mm 2 mps 722 mmHg 87%
    08:00 +24°C° 0 mm 2 mps 722 mmHg 85%
    09:00 +25°C° 0 mm 2 mps 722 mmHg 77%
    10:00 +27°C° 0 mm 3 mps 722 mmHg 70%
    11:00 +29°C° 0 mm 3 mps 722 mmHg 62%
    12:00 +30°C° 0.4 mm 3 mps 722 mmHg 59%
    13:00 +30°C° 0.4 mm 3 mps 721 mmHg 57%
    14:00 +32°C° 0.4 mm 4 mps 721 mmHg 54%
    15:00 +30°C° 0.9 mm 4 mps 721 mmHg 58%
    16:00 +30°C° 0.9 mm 4 mps 721 mmHg 62%
    17:00 +29°C° 0.9 mm 3 mps 720 mmHg 66%
    18:00 +27°C° 0.2 mm 3 mps 721 mmHg 73%
    19:00 +25°C° 0.2 mm 2 mps 721 mmHg 80%
    20:00 +24°C° 0.2 mm 2 mps 721 mmHg 87%
    21:00 +23°C° 1 mm 1 mps 722 mmHg 88%
    22:00 +23°C° 1 mm 1 mps 722 mmHg 90%
    23:00 +23°C° 1 mm 1 mps 723 mmHg 92%

    Tomorrow, 27 March, Monday

    Time Temperature Precipitation Wind Pressure Humidity
    00:00 +22°C° 0.2 mm 1 mps 723 mmHg 92%
    01:00 +22°C° 0.2 mm 1 mps 723 mmHg 93%
    02:00 +21°C° 0.2 mm 1 mps 723 mmHg 93%
    03:00 +21°C° 0 mm 1 mps 723 mmHg 93%
    04:00 +21°C° 0 mm 1 mps 723 mmHg 94%
    05:00 +21°C° 0 mm 1 mps 722 mmHg 94%
    06:00 +22°C° 0.1 mm 1 mps 723 mmHg 91%
    07:00 +23°C° 0.1 mm 1 mps 723 mmHg 88%
    08:00 +24°C° 0.1 mm 1 mps 724 mmHg 85%
    09:00 +25°C° 0.4 mm 1 mps 724 mmHg 81%
    10:00 +27°C° 0.4 mm 2 mps 724 mmHg 76%
    11:00 +28°C° 0.4 mm 3 mps 725 mmHg 71%
    12:00 +29°C° 0.7 mm 3 mps 724 mmHg 68%
    13:00 +29°C° 0.7 mm 3 mps 724 mmHg 65%
    14:00 +30°C° 0.7 mm 4 mps 723 mmHg 62%
    15:00 +30°C° 0.9 mm 4 mps 723 mmHg 64%
    16:00 +29°C° 0.9 mm 4 mps 723 mmHg 66%
    17:00 +29°C° 0.9 mm 4 mps 722 mmHg 68%
    18:00 +27°C° 0.6 mm 3 mps 723 mmHg 74%
    19:00 +26°C° 0.6 mm 2 mps 723 mmHg 80%
    20:00 +24°C° 0.6 mm 1 mps 723 mmHg 86%
    21:00 +24°C° 0.1 mm 2 mps 724 mmHg 87%
    22:00 +24°C° 0.1 mm 2 mps 724 mmHg 88%
    23:00 +24°C° 0.1 mm 2 mps 725 mmHg 89%

    Day after tomorrow, 28 March, Tuesday

    Time Temperature Precipitation Wind Pressure Humidity
    00:00 +23°C° 0.4 mm 2 mps 725 mmHg 90%
    01:00 +23°C° 0.4 mm 1 mps 725 mmHg 91%
    02:00 +23°C° 0.4 mm 1 mps 724 mmHg 92%
    03:00 +23°C° 0 mm 1 mps 724 mmHg 93%
    04:00 +22°C° 0 mm 1 mps 724 mmHg 94%
    05:00 +22°C° 0 mm 1 mps 724 mmHg 95%
    06:00 +22°C° 0.3 mm 1 mps 725 mmHg 95%
    07:00 +23°C° 0.3 mm 2 mps 725 mmHg 94%
    08:00 +23°C° 0.3 mm 2 mps 725 mmHg 93%
    09:00 +24°C° 0.2 mm 2 mps 726 mmHg 89%
    10:00 +25°C° 0.2 mm 3 mps 726 mmHg 85%
    11:00 +26°C° 0.2 mm 3 mps 726 mmHg 81%
    12:00 +27°C° 1 mm 3 mps 725 mmHg 78%
    13:00 +28°C° 1 mm 4 mps 725 mmHg 74%
    14:00 +29°C° 1 mm 4 mps 724 mmHg 70%
    15:00 +28°C° 0.9 mm 4 mps 724 mmHg 72%
    16:00 +28°C° 0.9 mm 4 mps 724 mmHg 74%
    17:00 +27°C° 0.9 mm 4 mps 723 mmHg 77%
    18:00 +26°C° 1.9 mm 3 mps 724 mmHg 82%
    19:00 +25°C° 1.9 mm 2 mps 724 mmHg 87%
    20:00 +23°C° 1.9 mm 2 mps 724 mmHg 92%
    21:00 +23°C° 0.9 mm 2 mps 724 mmHg 91%
    22:00 +23°C° 0.9 mm 2 mps 725 mmHg 90%
    23:00 +24°C° 0.9 mm 2 mps 725 mmHg 89%

    29 March, Wednesday

    Time Temperature Precipitation Wind Pressure Humidity
    00:00 +23°C° 0.1 mm 2 mps 725 mmHg 89%
    01:00 +21°C° 0.1 mm 2 mps 724 mmHg 90%
    02:00 +21°C° 0.1 mm 2 mps 724 mmHg 90%
    03:00 +21°C° 0.1 mm 2 mps 724 mmHg 90%
    04:00 +21°C° 0.1 mm 2 mps 724 mmHg 89%
    05:00 +21°C° 0.1 mm 2 mps 723 mmHg 89%
    06:00 +21°C° 0.1 mm 2 mps 724 mmHg 87%
    07:00 +21°C° 0.1 mm 3 mps 724 mmHg 86%
    08:00 +21°C° 0.1 mm 3 mps 724 mmHg 85%
    09:00 +22°C° 0.1 mm 3 mps 724 mmHg 80%
    10:00 +25°C° 0.1 mm 4 mps 724 mmHg 75%
    11:00 +26°C° 0.1 mm 4 mps 724 mmHg 70%
    12:00 +26°C° 0.1 mm 4 mps 723 mmHg 68%
    13:00 +27°C° 0.1 mm 4 mps 722 mmHg 67%
    14:00 +27°C° 0.1 mm 5 mps 722 mmHg 65%
    15:00 +27°C° 0.2 mm 4 mps 721 mmHg 67%
    16:00 +27°C° 0.2 mm 3 mps 721 mmHg 69%
    17:00 +26°C° 0.2 mm 3 mps 720 mmHg 72%
    18:00 +26°C° 0.7 mm 2 mps 720 mmHg 76%
    19:00 +25°C° 0.7 mm 2 mps 720 mmHg 80%
    20:00 +24°C° 0.7 mm 2 mps 720 mmHg 85%
    21:00 +24°C° 2.1 mm 2 mps 720 mmHg 87%
    22:00 +22°C° 2.1 mm 3 mps 720 mmHg 89%
    23:00 +22°C° 2.1 mm 3 mps 720 mmHg 91%

    30 March, Thursday

    Time Temperature Precipitation Wind Pressure Humidity
    00:00 +23°C° 2.1 mm 2 mps 720 mmHg 92%
    01:00 +23°C° 2.1 mm 2 mps 720 mmHg 93%
    02:00 +22°C° 2.1 mm 1 mps 719 mmHg 94%
    03:00 +21°C° 0.7 mm 2 mps 719 mmHg 94%
    04:00 +21°C° 0.7 mm 2 mps 719 mmHg 94%
    05:00 +21°C° 0.7 mm 3 mps 720 mmHg 94%
    06:00 +21°C° 0.6 mm 3 mps 720 mmHg 94%
    07:00 +21°C° 0.6 mm 3 mps 720 mmHg 94%
    08:00 +21°C° 0.6 mm 3 mps 721 mmHg 93%
    09:00 +21°C° 0.7 mm 3 mps 721 mmHg 93%
    10:00 +22°C° 0.7 mm 3 mps 721 mmHg 92%
    11:00 +22°C° 0.7 mm 3 mps 721 mmHg 91%
    12:00 +22°C° 0.3 mm 3 mps 721 mmHg 89%
    13:00 +24°C° 0.3 mm 3 mps 721 mmHg 88%
    14:00 +24°C° 0.3 mm 2 mps 720 mmHg 87%
    15:00 +24°C° 0.1 mm 2 mps 721 mmHg 88%
    16:00 +24°C° 0.1 mm 2 mps 721 mmHg 88%
    17:00 +24°C° 0.1 mm 3 mps 721 mmHg 89%
    18:00 +23°C° 0.2 mm 2 mps 721 mmHg 92%
    19:00 +23°C° 0.2 mm 2 mps 722 mmHg 95%
    20:00 +21°C° 0.2 mm 2 mps 722 mmHg 97%
    21:00 +21°C° 0.2 mm 2 mps 723 mmHg 98%
    22:00 +21°C° 0.2 mm 2 mps 723 mmHg 98%
    23:00 +21°C° 0.2 mm 2 mps 723 mmHg 98%

    31 March, Friday

    Time Temperature Precipitation Wind Pressure Humidity
    00:00 +20°C° 0.1 mm 2 mps 723 mmHg 98%
    01:00 +20°C° 0.1 mm 2 mps 723 mmHg 98%
    02:00 +20°C° 0.1 mm 2 mps 723 mmHg 98%
    03:00 +20°C° 0.1 mm 2 mps 723 mmHg 98%
    04:00 +20°C° 0.1 mm 2 mps 723 mmHg 98%
    05:00 +20°C° 0.1 mm 2 mps 723 mmHg 98%
    06:00 +20°C° 0.2 mm 2 mps 723 mmHg 97%
    07:00 +20°C° 0.2 mm 2 mps 724 mmHg 96%
    08:00 +21°C° 0.2 mm 2 mps 724 mmHg 95%
    09:00 +21°C° 0.3 mm 2 mps 724 mmHg 92%
    10:00 +22°C° 0.3 mm 3 mps 724 mmHg 90%
    11:00 +22°C° 0.3 mm 3 mps 724 mmHg 87%
    12:00 +24°C° 0.2 mm 3 mps 724 mmHg 85%
    13:00 +23°C° 0.2 mm 4 mps 724 mmHg 83%
    14:00 +25°C° 0.2 mm 4 mps 723 mmHg 82%
    15:00 +23°C° 0.2 mm 4 mps 723 mmHg 83%
    16:00 +24°C° 0.2 mm 3 mps 723 mmHg 85%
    17:00 +24°C° 0.2 mm 3 mps 723 mmHg 86%
    18:00 +22°C° 0.4 mm 3 mps 724 mmHg 89%
    19:00 +23°C° 0.4 mm 2 mps 724 mmHg 93%
    20:00 +21°C° 0.4 mm 2 mps 725 mmHg 96%
    21:00 +21°C° 0.6 mm 2 mps 725 mmHg 96%
    22:00 +21°C° 0.6 mm 2 mps 725 mmHg 96%
    23:00 +21°C° 0.6 mm 2 mps 725 mmHg 96%
    Show more